EHI
0 0 0 0 0 0 0 0 0 0 0 0 0 0 0 0 0 0 0 0 0 0 0 0 0 0 0 0 0 0 0 0 0 0 0 0 0 0 0 0 0 0 0
0 0 0 0 0 0 0 0 0 0 0 0 0 0 0 0 0 0 0 0 0 0 0 0 0 0 0 0 0 0 0 0 0 0 0 0 0 0 0 0 0 0 0
0 0 0 0 0 0 0 0 0 0 0 0 0 0 0 0 0 0 0 0 0 0 0 0 0 0 0 0 0 0 0 0 0 0 0 0 0 0 0 0 0 0 0
0 0 0 0 0 0 0 0 0 0 0 0 0 0 0 0 0 0 0 0 0 0 0 0 0 0 0 0 0 0 0 0 0 0 0 0 0 0 0 0 0 0 0
0 0 0 0 0 0 0 0 0 0 0 0 0 0 0 0 0 0 0 0 0 0 0 0 0 0 0 0 0 0 0 0 0 0 0 0 0 0 0 0 0 0 0
0 0 0 0 0 0 0 0 0 0 0 0 0 0 0 0 0 0 0 0 0 0 0 0 0 0 0 0 0 0 0 0 0 0 0 0 0 0 0 0 0 0 0
0 0 0 0 0 0 0 0 0 0 0 0 0 0 0 0 0 0 0 0 0 0 0 0 0 0 0 0 0 0 0 0 0 0 0 0 0 0 0 0 0 0 0
0 0 0 0 0 0 0 0 0 0 0 0 0 0 0 0 0 0 0 0 0 0 0 0 0 0 0 0 0 0 0 0 0 0 0 0 0 0 0 0 0 0 0
0 0 0 0 0 0 0 0 0 0 0 0 0 0 0 0 0 0 0 0 0 0 0 0 0 0 0 0 0 0 0 0 0 0 0 0 0 0 0 0 0 0 0
0 0 0 0 0 0 0 0 0 0 0 0 0 0 0 0 0 0 0 0 0 0 0 0 0 0 0 0 0 0 0 0 0 0 0 0 0 0 0 0 0 0 0
0 0 0 0 0 0 0 0 0 0 0 0 0 0 0 0 0 0 0 0 0 0 0 0 0 0 0 0 0 0 0 0 0 0 0 0 0 0 0 0 0 0 0
0 0 0 0 0 0 0 0 0 0 0 0 0 0 0 0 0 0 0 0 0 0 0 0 0 0 0 0 0 0 0 0 0 0 0 0 0 0 0 0 0 0 0
0 0 0 0 0 0 0 0 0 0 0 0 0 0 0 0 0 0 0 0 0 0 0 0 0 0 0 0 0 0 0 0 0 0 0 0 0 0 0 0 0 0 0
0 0 0 0 0 0 0 0 0 0 0 0 0 0 0 0 0 0 0 0 0 0 0 0 0 0 0 0 0 0 0 0 0 0 0 0 0 0 0 0 0 0 0
0 0 0 0 0 0 0 0 0 0 0 0 0 0 0 0 0 0 0 0 0 0 0 0 0 0 0 0 0 0 0 0 0 0 0 0 0 0 0 0 0 0 0
0 0 0 0 0 0 0 0 0 0 0 0 0 0 0 0 0 0 0 0 0 0 0 0 0 0 0 0 0 0 0 0 0 0 0 0 0 0 0 0 0 0 0
0 0 0 0 0 0 0 0 0 0 0 0 0 0 0 0 0 0 0 0 0 0 0 0 0 0 0 0 0 0 0 0 0 0 0 0 0 0 0 0 0 0 0
0 0 0 0 0 0 0 0 0 0 0 0 0 0 0 0 0 0 0 0 0 0 0 0 0 0 0 0 0 0 0 0 0 0 0 0 0 0 0 0 0 0 0
0 0 0 0 0 0 0 0 0 0 0 0 0 0 0 0 0 0 0 0 0 0 0 0 0 0 0 0 0 0 0 0 0 0 0 0 0 0 0 0 0 0 0
0 0 0 0 0 0 0 0 0 0 0 0 0 0 0 0 0 0 0 0 0 0 0 0 0 0 0 0 0 0 0 0 0 0 0 0 0 0 0 0 0 0 0
0 0 0 0 0 0 0 0 0 0 0 0 0 0 0 0 0 0 0 0 0 0 0 0 0 0 0 0 0 0 0 0 0 0 0 0 0 0 0 0 0 0 0
0 0 0 0 0 0 0 0 0 0 0 0 0 0 0 0 0 0 0 0 0 0 0 0 0 0 0 0 0 0 0 0 0 0 0 0 0 0 0 0 0 0 0
0 0 0 0 0 0 0 0 0 0 0 0 0 0 0 0 0 0 0 0 0 0 0 0 0 0 0 0 0 0 0 0 0 0 0 0 0 0 0 0 0 0 0
0 0 0 0 0 0 0 0 0 0 0 0 0 0 0 0 0 0 0 0 0 0 0 0 0 0 0 0 0 0 0 0 0 0 0 0 0 0 0 0 0 0 0
0 0 0 0 0 0 0 0 0 0 0 0 0 0 0 0 0 0 0 0 0 0 0 0 0 0 0 0 0 0 0 0 0 0 0 0 0 0 0 0 0 0 0
0 0 0 0 0 0 0 0 0 0 0 0 0 0 0 0 0 0 0 0 0 0 0 0 0 0 0 0 0 0 0 0 0 0 0 0 0 0 0 0 0 0 0
Wind_Speed
3 2 1 2 2 2 2 3 3 4 5 5 5 6 6 6 6 6 6 16 20 21 23 25 27 28 29 30 31 32 33 34 34 34 34 34 33 33 32 31 30 29 27
4 3 2 1 0 0 1 1 3 3 4 4 6 6 7 7 6 7 5 9 17 20 22 24 26 28 30 31 31 32 33 35 35 35 35 35 34 34 33 32 31 30 28
5 4 3 2 2 2 2 2 3 3 4 5 6 7 7 6 7 7 7 5 7 15 20 24 26 28 30 31 32 33 34 35 36 36 36 36 35 35 34 33 32 31 29
6 5 4 3 3 3 2 3 3 3 4 4 5 6 6 6 7 7 6 5 5 6 12 22 25 27 30 31 33 33 34 35 35 36 37 37 36 35 35 34 33 32 30
7 5 4 4 4 3 3 4 3 3 4 5 6 6 6 6 7 7 6 6 6 6 6 14 23 27 29 30 32 34 34 35 35 36 37 37 36 35 35 34 33 33 31
8 6 4 5 4 3 4 4 4 4 4 5 7 7 7 8 6 6 6 5 5 7 7 9 10 15 26 30 31 33 35 35 35 36 36 36 36 35 35 34 33 33 31
8 7 5 5 5 5 5 5 3 4 4 3 3 5 7 7 7 5 4 5 6 7 7 8 8 8 11 24 29 32 34 35 36 35 36 36 36 34 34 33 33 33 31
9 8 7 6 5 5 5 5 4 3 3 2 2 4 5 4 3 6 5 6 7 5 7 11 9 11 10 9 18 31 33 34 35 35 35 35 35 34 33 32 32 32 30
9 8 8 7 6 6 5 6 5 5 4 3 3 2 3 5 7 5 6 6 6 6 7 7 10 10 13 12 12 21 30 33 34 35 34 34 33 32 31 29 28 28 28
9 9 8 8 7 6 6 6 6 5 5 4 3 4 5 5 5 8 5 4 6 8 8 10 9 11 13 11 15 25 31 33 33 33 32 33 32 30 30 28 25 25 26
8 9 8 7 7 6 7 7 6 6 5 5 4 4 5 5 7 7 13 11 7 6 7 8 8 9 12 12 11 19 30 32 33 32 31 31 30 29 27 26 23 22 23
7 8 9 8 8 7 7 8 7 7 6 7 6 5 5 5 6 7 10 14 14 9 7 6 8 9 10 10 15 27 30 32 32 31 31 30 29 28 27 25 23 19 18
8 10 10 8 8 8 8 7 7 7 7 8 7 7 7 8 8 8 11 14 16 13 8 7 8 8 10 8 11 26 27 30 31 31 31 30 29 28 26 25 23 20 17
10 9 11 9 9 9 9 7 7 7 7 8 9 8 7 8 8 9 10 12 16 16 11 8 5 7 8 8 15 27 17 27 30 31 31 30 28 27 26 25 23 21 19
8 11 10 10 9 9 9 8 7 8 7 8 9 9 9 9 8 9 10 10 12 17 17 9 5 6 7 8 16 13 12 23 30 31 30 29 28 27 26 25 23 21 20
10 10 11 10 10 9 9 8 7 8 8 9 8 9 10 9 8 9 10 11 11 14 17 8 8 9 10 12 19 14 12 28 29 30 29 28 27 27 26 25 24 22 20
12 12 11 11 10 10 9 8 9 8 9 10 9 10 12 11 10 10 10 11 11 12 16 14 10 10 11 13 13 11 12 12 14 26 28 28 28 27 26 25 24 23 22
13 12 11 11 10 10 9 9 10 9 9 11 11 11 13 11 12 11 10 12 12 12 14 18 13 11 13 13 12 12 12 12 10 22 28 28 27 26 25 25 24 23 22
13 12 12 11 10 9 9 9 9 10 10 11 11 12 13 12 13 11 12 12 11 12 12 14 15 12 11 10 11 12 12 10 12 16 22 24 25 25 25 25 24 24 23
13 13 12 11 10 9 9 9 9 10 10 12 12 13 13 13 14 14 13 14 13 13 13 14 14 13 11 10 9 10 10 8 10 11 16 18 22 23 23 23 24 24 24
14 12 11 10 9 8 8 9 9 10 11 12 13 13 13 16 19 17 14 11 11 11 11 12 13 12 11 9 9 8 11 10 9 9 10 10 9 8 10 16 21 23 24
12 11 11 11 10 9 14 18 14 11 11 12 12 10 11 14 18 23 26 25 22 15 13 12 11 12 12 11 9 10 10 11 11 5 7 9 7 9 9 8 18 24 25
12 12 11 11 11 12 18 19 20 12 9 8 8 8 9 10 16 9 18 25 23 26 25 17 14 14 14 11 12 13 12 12 12 7 8 12 9 10 9 12 22 24 25
11 11 11 11 10 12 18 19 19 11 7 7 8 9 10 10 11 14 14 14 12 12 16 12 12 14 13 13 13 13 13 12 11 9 9 11 8 9 10 10 20 24 25
11 11 10 11 11 12 16 17 17 6 7 8 8 9 10 9 18 24 17 12 9 10 16 20 20 19 23 23 18 9 8 8 10 8 5 7 6 8 9 10 13 21 23
11 11 11 11 11 10 14 16 16 5 7 7 7 8 14 15 20 23 13 9 10 12 10 9 12 15 13 14 19 10 6 8 8 6 4 4 4 4 6 4 5 6 10
Wind_Direction
147 132 102 66 44 35 25 2 350 335 323 312 301 301 297 292 287 283 296 314 323 323 324 323 322 321 319 317 313 309 305 299 295 291 287 283 280 277 274 272 271 272 273
156 150 139 120 86 1 319 305 293 290 286 284 283 283 281 278 275 277 279 301 315 322 322 321 320 318 315 314 313 310 306 300 295 291 287 284 279 276 272 269 267 267 268
165 161 163 185 211 220 242 262 276 263 264 268 273 276 272 264 270 275 280 274 291 312 318 320 317 314 313 313 312 310 306 301 295 290 286 284 280 275 271 267 264 263 263
172 168 178 202 208 206 220 243 250 255 261 265 267 269 269 268 271 270 269 273 277 291 308 314 314 314 313 311 309 307 304 300 293 289 284 281 279 274 269 265 261 258 259
179 175 188 204 203 205 217 242 238 230 255 266 266 261 255 260 266 273 272 273 274 284 287 306 313 314 310 306 306 305 303 299 293 288 283 280 279 274 268 264 260 256 255
183 181 192 206 201 206 220 227 245 245 241 255 275 277 263 259 256 256 262 272 275 282 288 293 298 303 305 306 304 304 302 299 293 288 284 280 279 276 269 263 258 253 251
186 185 195 198 201 209 219 219 232 260 260 247 269 277 265 252 245 247 249 263 271 274 279 288 289 289 296 300 303 302 300 298 294 289 285 282 280 279 272 265 259 252 247
190 193 194 199 203 209 218 220 212 236 258 260 271 305 313 294 250 248 246 260 267 268 282 291 288 289 292 290 289 297 300 299 295 291 286 282 281 279 276 268 260 252 245
192 193 191 196 202 203 215 218 209 215 242 253 207 230 293 297 308 258 233 251 257 264 273 279 282 289 297 293 290 293 293 295 295 291 288 285 281 280 278 272 263 253 245
191 193 195 196 203 206 214 221 216 207 217 247 234 218 219 236 289 303 280 248 250 266 266 281 287 289 290 289 286 292 295 296 297 295 292 290 287 284 280 274 269 257 246
194 195 196 197 204 210 214 218 220 216 213 227 229 227 237 241 234 264 291 296 280 253 258 261 271 281 287 286 284 287 291 298 300 301 301 298 297 295 290 283 276 265 251
197 199 201 200 205 210 215 218 219 222 224 229 235 230 230 238 243 246 272 289 292 284 260 255 265 273 278 282 285 293 297 300 303 306 308 307 304 303 301 296 291 283 271
200 204 202 201 207 213 218 218 220 226 226 230 234 238 239 242 247 252 266 280 286 288 272 255 251 261 275 280 286 293 295 300 304 307 308 307 305 304 304 301 297 297 297
200 193 197 203 208 212 220 217 223 228 229 232 242 241 244 250 248 249 257 274 285 289 281 266 247 249 266 275 281 292 294 297 302 304 305 305 305 304 302 300 298 297 299
192 193 196 201 208 214 218 218 227 231 232 237 244 246 247 254 251 251 253 254 268 286 290 285 275 252 263 271 280 285 281 291 296 300 303 302 301 299 298 297 296 293 293
192 188 195 202 208 214 217 219 229 233 235 242 244 247 250 253 254 255 254 254 253 263 278 280 276 274 274 280 284 286 285 291 297 299 296 295 295 295 294 293 292 290 288
193 195 196 202 209 214 216 220 231 233 239 249 250 250 254 255 258 259 258 257 256 256 270 279 276 276 272 274 279 276 275 276 281 288 291 292 292 290 288 287 287 287 284
194 196 195 202 210 214 214 219 233 239 239 248 253 254 258 260 259 261 261 260 260 258 264 276 278 275 271 271 271 270 277 277 276 285 288 288 287 286 284 281 281 281 281
193 193 194 203 209 212 215 221 230 239 242 247 252 254 258 259 263 262 261 262 262 261 259 267 274 274 272 269 270 272 270 270 275 281 286 288 287 285 282 279 277 276 276
192 193 196 203 207 210 217 225 230 238 245 249 251 253 255 255 260 263 262 259 259 260 259 262 268 272 272 267 264 273 279 271 274 280 282 282 281 282 281 279 275 272 271
193 191 193 202 207 210 215 220 230 239 244 251 253 251 253 258 262 270 274 268 258 259 263 263 268 274 275 274 273 275 280 282 273 268 271 272 274 273 277 279 277 271 268
188 185 193 199 208 218 233 241 243 235 239 247 255 255 256 268 277 283 287 290 288 282 279 274 277 278 278 274 274 274 276 279 281 250 255 268 266 269 266 258 262 262 260
185 188 194 199 212 226 239 250 259 260 250 249 252 260 267 267 284 280 284 288 288 285 284 283 282 279 279 276 273 270 264 263 266 260 267 274 268 268 266 263 264 257 252
188 192 196 202 213 228 238 250 261 264 257 250 249 254 261 266 272 279 274 275 268 267 273 278 271 273 274 273 264 264 265 265 264 259 253 268 268 266 269 262 262 255 248
189 193 195 201 211 227 236 248 259 253 256 255 253 256 261 262 279 291 294 292 283 278 290 292 293 296 298 300 298 289 277 274 276 272 245 256 270 278 271 260 254 250 243
192 190 199 202 209 218 230 242 254 246 256 263 261 258 274 282 291 299 302 298 295 293 290 285 290 294 294 291 294 290 278 273 274 277 242 241 262 281 286 267 253 248 241